EW4787 Weather Reports


time (UTC)temp
F
wind
direction
speed
knots
gust
knots
rain 1hr
in
rain 24hr
in
rain mn
in
humidity
%
barometer
mb
20260506123047 0 34 0.0 5.2 0.00 0.00 0.00 1007.8
20260506121546 0 267 1.7 5.2 0.00 0.00 0.00 1007.7
20260506120048 0 327 0.9 7.0 0.00 0.00 0.00 1007.8
20260506114548 0 336 1.7 7.0 0.00 0.00 0.00 1007.8
20260506113050 0 5 1.7 5.2 0.00 0.00 0.00 1007.7
20260506111542 0 334 0.0 8.7 0.00 0.00 0.00 1007.8
20260506110038 0 331 3.5 8.7 0.00 0.00 0.00 1007.8
20260506104537 0 319 1.7 7.8 0.00 0.00 0.00 1007.8
20260506103032 0 345 2.6 10.4 0.00 0.00 0.00 1007.8
20260506101533 0 19 0.0 7.0 0.00 0.00 0.00 1007.6
20260506100028 0 60 2.6 8.7 0.00 0.00 0.00 1007.8
20260506094516 0 334 0.0 7.0 0.00 0.00 0.00 1007.8
20260506093014 0 15 0.9 11.3 0.00 0.00 0.00 1007.8
20260506091510 0 338 3.5 10.4 0.00 0.00 0.00 1007.8
20260506090004 0 355 1.7 8.7 0.00 0.00 0.00 1007.7
20260506084603 0 5 1.7 7.0 0.00 0.00 0.00 1007.6
20260506083059 0 5 2.6 7.8 0.00 0.00 0.00 1007.5
20260506081554 0 321 2.6 8.7 0.00 0.00 0.00 1007.6
20260506073039 0 323 1.7 7.8 0.00 0.00 0.00 1007.5
20260506071534 0 36 1.7 7.8 0.00 0.00 0.00 1007.5
20260506061517 0 355 2.6 8.7 0.00 0.00 0.00 1007.1
20260506044615 0 355 1.7 4.3 0.00 0.00 0.00 1006.9
20260506043047 0 342 0.9 2.6 0.00 0.00 0.00 1006.9
20260506041542 0 344 1.7 4.3 0.00 0.00 0.00 1006.9
20260506040041 0 27 1.7 4.3 0.00 0.00 0.00 1006.7
20260506034534 0 40 1.7 4.3 0.00 0.00 0.00 1006.9
20260506033034 0 24 1.7 7.0 0.00 0.00 0.00 1006.8
20260506031526 0 18 1.7 5.2 0.00 0.00 0.00 1006.8
20260506030021 0 333 2.6 7.8 0.00 0.00 0.00 1006.9
20260506024518 0 40 2.6 7.8 0.00 0.00 0.00 1007.0
20260506023023 0 32 1.7 4.3 0.00 0.00 0.00 1007.1
20260506021518 0 13 1.7 6.1 0.00 0.00 0.00 1007.2
20260506020004 0 25 0.9 4.3 0.00 0.00 0.00 1007.2
20260506014603 0 82 0.9 3.5 0.00 0.00 0.00 1007.3
20260506013104 0 53 1.7 4.3 0.00 0.00 0.00 1007.3
20260506011552 0 72 0.0 0.0 0.00 0.00 0.00 1007.3
20260506010055 0 44 0.0 0.0 0.00 0.00 0.00 1007.4
20260506004548 0 342 0.0 4.3 0.00 0.00 0.00 1007.5
20260506003038 0 44 0.0 5.2 0.00 0.00 0.00 1007.5
20260506001539 0 35 1.7 4.3 0.00 0.00 0.00 1007.6
20260506000030 0 355 2.6 9.6 0.00 0.00 0.00 1007.5
20260505234539 0 22 1.7 6.1 0.00 0.00 0.00 1007.6
20260505233033 0 10 1.7 6.1 0.00 0.00 0.00 1007.6
20260505231519 0 335 0.9 4.3 0.00 0.00 0.00 1007.4
20260505230014 0 27 1.7 4.3 0.00 0.00 0.00 1007.5
20260505224514 0 344 1.7 6.1 0.00 0.00 0.00 1007.5
20260505223013 0 28 0.9 5.2 0.00 0.00 0.00 1007.7
20260505221513 0 355 0.0 5.2 0.00 0.00 0.00 1007.7
20260505220013 0 12 0.0 2.6 0.00 0.00 0.00 1007.5
20260505214511 0 342 0.0 3.5 0.00 0.00 0.00 1007.5
20260505213011 0 50 0.0 4.3 0.00 0.00 0.00 1007.5
20260505211512 0 66 0.9 3.5 0.00 0.00 0.00 1007.5
20260505210010 0 31 0.9 3.5 0.00 0.00 0.00 1007.5
20260505204509 0 67 0.0 3.5 0.00 0.00 0.00 1007.5
20260505203016 0 13 1.7 7.0 0.00 0.00 0.00 1007.4
20260505201509 0 48 1.7 4.3 0.00 0.00 0.00 1007.2
20260505200007 0 21 0.0 2.6 0.00 0.00 0.00 1007.1
20260505194507 0 17 0.0 2.6 0.00 0.00 0.00 1006.8
20260505193005 0 56 1.7 5.2 0.00 0.00 0.00 1006.6
20260505191559 0 355 0.0 3.5 0.00 0.00 0.00 1006.7
20260505190054 0 19 0.0 3.5 0.00 0.00 0.00 1006.5
20260505184551 0 57 0.9 2.6 0.00 0.00 0.00 1006.4
20260505183046 0 59 0.0 0.0 0.00 0.00 0.00 1006.3
20260505181541 0 79 0.9 3.5 0.00 0.00 0.00 1006.3
20260505180057 0 350 0.0 3.5 0.00 0.00 0.00 1006.3
20260505174549 0 331 1.7 3.5 0.00 0.00 0.00 1006.3
20260505173033 0 67 0.9 4.3 0.00 0.00 0.00 1006.3
20260505171525 0 45 1.7 8.7 0.00 0.00 0.00 1006.4
20260505170018 0 44 0.0 7.0 0.00 0.00 0.00 1006.4
20260505164517 0 36 2.6 7.8 0.00 0.00 0.00 1006.4
20260505163019 0 347 2.6 8.7 0.00 0.00 0.00 1006.4
20260505161509 0 53 3.5 8.7 0.00 0.00 0.00 1006.4
20260505153056 0 15 0.0 7.8 0.00 0.00 0.00 1006.5
20260505151552 0 63 0.0 0.0 0.00 0.00 0.00 1006.5
20260505124507 0 63 2.6 10.4 0.00 0.00 0.00 1007.2